Wetterdaten: Sonntag, 20.12.2015
Datum Zeit Auen-Temp. Temp gefhlt Luftfeuchte Luftdruck Regen Wind Richtung Richtung Taupunkt Windben
20.12.2015 00:00 1,0 C 0,7 C 90 % 1024,7 hPa 0,0 mm 0,0 km/h (0 Bft) W 270 -0,5 C 0,0 km/h (0 Bft)
20.12.2015 00:05 0,7 C 0,5 C 91 % 1024,7 hPa 0,0 mm 0,0 km/h (0 Bft) W 270 -0,6 C 0,0 km/h (0 Bft)
20.12.2015 00:10 1,0 C 0,7 C 90 % 1024,7 hPa 0,0 mm 0,0 km/h (0 Bft) W 270 -0,5 C 0,0 km/h (0 Bft)
20.12.2015 00:15 0,8 C 0,5 C 91 % 1024,5 hPa 0,0 mm 0,0 km/h (0 Bft) W 270 -0,5 C 0,0 km/h (0 Bft)
20.12.2015 00:20 0,6 C 0,4 C 91 % 1024,5 hPa 0,0 mm 0,0 km/h (0 Bft) W 270 -0,7 C 0,0 km/h (0 Bft)
20.12.2015 00:25 0,7 C 0,5 C 91 % 1024,5 hPa 0,0 mm 0,0 km/h (0 Bft) W 270 -0,6 C 0,0 km/h (0 Bft)
20.12.2015 00:30 0,8 C 0,5 C 91 % 1024,5 hPa 0,0 mm 0,0 km/h (0 Bft) W 270 -0,5 C 0,0 km/h (0 Bft)
20.12.2015 00:35 0,6 C 0,4 C 91 % 1024,3 hPa 0,0 mm 0,0 km/h (0 Bft) W 270 -0,7 C 0,0 km/h (0 Bft)
20.12.2015 00:40 0,9 C 0,6 C 91 % 1024,3 hPa 0,0 mm 0,0 km/h (0 Bft) SW 225 -0,4 C 0,0 km/h (0 Bft)
20.12.2015 00:45 1,0 C 0,7 C 91 % 1024,3 hPa 0,0 mm 0,0 km/h (0 Bft) S 180 -0,3 C 0,0 km/h (0 Bft)
20.12.2015 00:52 0,6 C 0,4 C 91 % 1024,3 hPa 0,0 mm 0,0 km/h (0 Bft) W-SW 247 -0,7 C 0,0 km/h (0 Bft)
20.12.2015 00:55 0,6 C 0,4 C 91 % 1024,2 hPa 0,0 mm 0,0 km/h (0 Bft) W-SW 247 -0,7 C 0,0 km/h (0 Bft)
20.12.2015 01:00 0,5 C 0,3 C 91 % 1024,2 hPa 0,0 mm 0,0 km/h (0 Bft) W-SW 247 -0,8 C 0,0 km/h (0 Bft)
20.12.2015 01:05 0,5 C 0,3 C 91 % 1024,2 hPa 0,0 mm 0,0 km/h (0 Bft) W-SW 247 -0,8 C 0,0 km/h (0 Bft)
20.12.2015 01:10 0,4 C 0,2 C 91 % 1024,2 hPa 0,0 mm 0,0 km/h (0 Bft) W 270 -0,9 C 0,0 km/h (0 Bft)
20.12.2015 01:15 0,2 C 0,0 C 91 % 1023,9 hPa 0,0 mm 0,0 km/h (0 Bft) W-SW 247 -1,1 C 0,0 km/h (0 Bft)
20.12.2015 01:20 0,4 C 0,2 C 91 % 1023,9 hPa 0,0 mm 0,0 km/h (0 Bft) S 180 -0,9 C 0,0 km/h (0 Bft)
20.12.2015 01:25 0,5 C 0,3 C 91 % 1023,9 hPa 0,0 mm 0,0 km/h (0 Bft) S 180 -0,8 C 0,0 km/h (0 Bft)
20.12.2015 01:30 0,2 C 0,1 C 91 % 1023,9 hPa 0,0 mm 0,0 km/h (0 Bft) W-SW 247 -1,1 C 0,0 km/h (0 Bft)
20.12.2015 01:35 0,4 C 0,3 C 91 % 1023,8 hPa 0,0 mm 0,0 km/h (0 Bft) W 270 -0,9 C 0,0 km/h (0 Bft)
20.12.2015 01:40 0,2 C 0,1 C 91 % 1023,8 hPa 0,0 mm 0,0 km/h (0 Bft) W 270 -1,1 C 0,0 km/h (0 Bft)
20.12.2015 01:45 0,4 C 0,2 C 91 % 1023,8 hPa 0,0 mm 0,0 km/h (0 Bft) W 270 -0,9 C 0,0 km/h (0 Bft)
20.12.2015 01:50 0,2 C 0,0 C 91 % 1023,8 hPa 0,0 mm 0,0 km/h (0 Bft) W 270 -1,1 C 0,0 km/h (0 Bft)
20.12.2015 01:55 0,6 C 0,3 C 92 % 1024,0 hPa 0,0 mm 0,0 km/h (0 Bft) W 270 -0,5 C 0,0 km/h (0 Bft)
20.12.2015 02:00 0,7 C 0,4 C 92 % 1024,0 hPa 0,0 mm 0,3 km/h (0 Bft) W-SW 247 -0,4 C 3,1 km/h (1 Bft)
20.12.2015 02:05 0,4 C 0,3 C 92 % 1024,0 hPa 0,0 mm 0,3 km/h (0 Bft) W-SW 247 -0,7 C 0,0 km/h (0 Bft)
20.12.2015 02:10 0,2 C 0,1 C 92 % 1024,0 hPa 0,0 mm 0,0 km/h (0 Bft) W-SW 247 -0,9 C 0,0 km/h (0 Bft)
20.12.2015 02:15 0,2 C 0,1 C 92 % 1024,2 hPa 0,0 mm 0,0 km/h (0 Bft) S 180 -0,9 C 0,0 km/h (0 Bft)
20.12.2015 02:20 0,1 C 0,1 C 92 % 1024,2 hPa 0,0 mm 0,0 km/h (0 Bft) S-SO 157 -1,0 C 0,0 km/h (0 Bft)
20.12.2015 02:25 0,6 C 0,4 C 87 % 1024,2 hPa 0,0 mm 0,0 km/h (0 Bft) S-SO 157 -1,3 C 0,0 km/h (0 Bft)
20.12.2015 02:30 0,4 C 0,3 C 92 % 1024,2 hPa 0,0 mm 0,0 km/h (0 Bft) S-SO 157 -0,7 C 0,0 km/h (0 Bft)
20.12.2015 02:35 0,6 C 0,4 C 92 % 1024,1 hPa 0,0 mm 0,0 km/h (0 Bft) S-SO 157 -0,5 C 0,0 km/h (0 Bft)
20.12.2015 02:40 0,7 C 0,6 C 87 % 1024,1 hPa 0,0 mm 0,0 km/h (0 Bft) S-SO 157 -1,2 C 0,0 km/h (0 Bft)
20.12.2015 02:45 0,7 C 0,6 C 92 % 1024,1 hPa 0,0 mm 0,0 km/h (0 Bft) S-SO 157 -0,4 C 0,0 km/h (0 Bft)
20.12.2015 02:50 0,6 C 0,5 C 92 % 1024,1 hPa 0,0 mm 0,0 km/h (0 Bft) S-SO 157 -0,5 C 0,0 km/h (0 Bft)
20.12.2015 02:55 0,5 C 0,4 C 92 % 1024,0 hPa 0,0 mm 0,0 km/h (0 Bft) S-SO 157 -0,6 C 0,0 km/h (0 Bft)
20.12.2015 03:00 0,2 C 0,2 C 92 % 1024,0 hPa 0,0 mm 0,0 km/h (0 Bft) S-SO 157 -0,9 C 0,0 km/h (0 Bft)
20.12.2015 03:05 0,5 C 0,4 C 92 % 1024,0 hPa 0,0 mm 0,0 km/h (0 Bft) S-SO 157 -0,6 C 0,0 km/h (0 Bft)
20.12.2015 03:10 0,4 C 0,3 C 92 % 1024,0 hPa 0,0 mm 0,0 km/h (0 Bft) S-SO 157 -0,7 C 0,0 km/h (0 Bft)
20.12.2015 03:15 0,3 C 0,2 C 92 % 1024,0 hPa 0,0 mm 0,0 km/h (0 Bft) S-SO 157 -0,8 C 0,0 km/h (0 Bft)
20.12.2015 03:20 0,2 C 0,0 C 92 % 1024,0 hPa 0,0 mm 0,0 km/h (0 Bft) S-SO 157 -0,9 C 0,0 km/h (0 Bft)
20.12.2015 03:25 0,4 C 0,1 C 92 % 1024,0 hPa 0,0 mm 0,0 km/h (0 Bft) S-SO 157 -0,7 C 0,0 km/h (0 Bft)
20.12.2015 03:30 0,6 C 0,2 C 93 % 1024,0 hPa 0,0 mm 0,0 km/h (0 Bft) S-SO 157 -0,4 C 0,0 km/h (0 Bft)
20.12.2015 03:35 0,7 C 0,3 C 93 % 1023,9 hPa 0,0 mm 0,0 km/h (0 Bft) S-SO 157 -0,3 C 0,0 km/h (0 Bft)
20.12.2015 03:40 0,6 C 0,3 C 93 % 1023,9 hPa 0,0 mm 0,0 km/h (0 Bft) S-SO 157 -0,4 C 0,0 km/h (0 Bft)
20.12.2015 03:45 0,6 C 0,3 C 93 % 1023,9 hPa 0,0 mm 0,0 km/h (0 Bft) S-SO 157 -0,4 C 0,0 km/h (0 Bft)
20.12.2015 03:50 0,6 C 0,3 C 93 % 1023,9 hPa 0,0 mm 0,0 km/h (0 Bft) S-SO 157 -0,4 C 0,0 km/h (0 Bft)
20.12.2015 03:55 0,8 C 0,5 C 93 % 1023,9 hPa 0,0 mm 0,0 km/h (0 Bft) S-SO 157 -0,2 C 0,0 km/h (0 Bft)
20.12.2015 04:00 0,8 C 0,5 C 93 % 1023,9 hPa 0,0 mm 0,0 km/h (0 Bft) S-SO 157 -0,2 C 0,0 km/h (0 Bft)
20.12.2015 04:05 0,7 C 0,4 C 93 % 1023,9 hPa 0,0 mm 0,0 km/h (0 Bft) S-SO 157 -0,3 C 0,0 km/h (0 Bft)
20.12.2015 04:10 0,7 C 0,4 C 93 % 1023,9 hPa 0,0 mm 0,0 km/h (0 Bft) S-SO 157 -0,3 C 0,0 km/h (0 Bft)
20.12.2015 04:15 0,9 C 0,5 C 93 % 1023,8 hPa 0,0 mm 0,0 km/h (0 Bft) S-SO 157 -0,1 C 0,0 km/h (0 Bft)
20.12.2015 04:20 0,9 C 0,6 C 93 % 1023,8 hPa 0,0 mm 0,0 km/h (0 Bft) S-SO 157 -0,1 C 0,0 km/h (0 Bft)
20.12.2015 04:25 0,5 C 0,4 C 93 % 1023,8 hPa 0,0 mm 0,0 km/h (0 Bft) S-SO 157 -0,5 C 0,0 km/h (0 Bft)
20.12.2015 04:30 0,4 C 0,3 C 93 % 1023,8 hPa 0,0 mm 0,0 km/h (0 Bft) S-SO 157 -0,6 C 0,0 km/h (0 Bft)
20.12.2015 04:35 1,0 C 0,7 C 93 % 1023,8 hPa 0,0 mm 0,0 km/h (0 Bft) S-SO 157 -0,0 C 0,0 km/h (0 Bft)
20.12.2015 04:40 1,1 C 0,8 C 93 % 1023,8 hPa 0,0 mm 0,0 km/h (0 Bft) SW 225 0,1 C 0,0 km/h (0 Bft)
20.12.2015 04:45 0,8 C 0,7 C 93 % 1023,8 hPa 0,0 mm 0,3 km/h (0 Bft) N-NW 337 -0,2 C 0,0 km/h (0 Bft)
20.12.2015 04:50 0,6 C 0,4 C 93 % 1023,8 hPa 0,0 mm 0,5 km/h (0 Bft) O-NO 67 -0,4 C 4,7 km/h (1 Bft)
20.12.2015 04:55 0,5 C 0,3 C 93 % 1023,8 hPa 0,0 mm 0,3 km/h (0 Bft) O-NO 67 -0,5 C 0,0 km/h (0 Bft)
20.12.2015 05:00 0,1 C 0,0 C 93 % 1023,8 hPa 0,0 mm 0,0 km/h (0 Bft) NO 45 -0,9 C 0,0 km/h (0 Bft)
20.12.2015 05:05 0,2 C 0,0 C 93 % 1023,8 hPa 0,0 mm 0,0 km/h (0 Bft) O-NO 67 -0,8 C 0,0 km/h (0 Bft)
20.12.2015 05:10 0,3 C 0,1 C 93 % 1023,8 hPa 0,0 mm 0,0 km/h (0 Bft) O-NO 67 -0,7 C 0,0 km/h (0 Bft)
20.12.2015 05:15 0,3 C 0,1 C 93 % 1023,6 hPa 0,0 mm 0,0 km/h (0 Bft) NO 45 -0,7 C 0,0 km/h (0 Bft)
20.12.2015 05:20 0,2 C 0,0 C 93 % 1023,6 hPa 0,0 mm 0,0 km/h (0 Bft) NO 45 -0,8 C 0,0 km/h (0 Bft)
20.12.2015 05:25 0,4 C 0,1 C 93 % 1023,6 hPa 0,0 mm 0,0 km/h (0 Bft) O-NO 67 -0,6 C 0,0 km/h (0 Bft)
20.12.2015 05:30 0,5 C 0,2 C 93 % 1023,6 hPa 0,0 mm 0,0 km/h (0 Bft) O-NO 67 -0,5 C 0,0 km/h (0 Bft)
20.12.2015 05:35 0,4 C 0,1 C 93 % 1023,7 hPa 0,0 mm 0,0 km/h (0 Bft) O-NO 67 -0,6 C 0,0 km/h (0 Bft)
20.12.2015 05:40 0,7 C 0,3 C 93 % 1023,7 hPa 0,0 mm 0,0 km/h (0 Bft) NO 45 -0,3 C 0,0 km/h (0 Bft)
20.12.2015 05:45 0,6 C 0,2 C 93 % 1023,7 hPa 0,0 mm 0,0 km/h (0 Bft) NO 45 -0,4 C 0,0 km/h (0 Bft)
20.12.2015 05:50 0,2 C -0,1 C 93 % 1023,7 hPa 0,0 mm 0,0 km/h (0 Bft) O-NO 67 -0,8 C 0,0 km/h (0 Bft)
20.12.2015 05:55 0,3 C 0,0 C 93 % 1023,6 hPa 0,0 mm 0,0 km/h (0 Bft) NO 45 -0,7 C 0,0 km/h (0 Bft)
20.12.2015 06:00 0,7 C 0,2 C 93 % 1023,6 hPa 0,0 mm 0,0 km/h (0 Bft) O 90 -0,3 C 0,0 km/h (0 Bft)
20.12.2015 06:05 0,4 C 0,0 C 93 % 1023,6 hPa 0,0 mm 0,0 km/h (0 Bft) O 90 -0,6 C 0,0 km/h (0 Bft)
20.12.2015 06:10 0,6 C 0,1 C 93 % 1023,6 hPa 0,0 mm 0,0 km/h (0 Bft) O 90 -0,4 C 0,0 km/h (0 Bft)
20.12.2015 06:15 0,4 C 0,1 C 93 % 1023,6 hPa 0,0 mm 0,0 km/h (0 Bft) O 90 -0,6 C 0,0 km/h (0 Bft)
20.12.2015 06:20 0,3 C 0,0 C 93 % 1023,6 hPa 0,0 mm 0,0 km/h (0 Bft) O 90 -0,7 C 0,0 km/h (0 Bft)
20.12.2015 06:25 0,4 C 0,1 C 93 % 1023,6 hPa 0,0 mm 0,0 km/h (0 Bft) O 90 -0,6 C 0,0 km/h (0 Bft)
20.12.2015 06:30 0,2 C -0,1 C 93 % 1023,6 hPa 0,0 mm 0,0 km/h (0 Bft) N-NO 22 -0,8 C 0,0 km/h (0 Bft)
20.12.2015 06:35 0,1 C -0,1 C 93 % 1023,8 hPa 0,0 mm 0,0 km/h (0 Bft) NO 45 -0,9 C 0,0 km/h (0 Bft)
20.12.2015 06:40 0,5 C 0,1 C 93 % 1023,8 hPa 0,0 mm 0,0 km/h (0 Bft) NO 45 -0,5 C 0,0 km/h (0 Bft)
20.12.2015 06:45 0,8 C 0,3 C 93 % 1023,8 hPa 0,0 mm 0,0 km/h (0 Bft) O 90 -0,2 C 0,0 km/h (0 Bft)
20.12.2015 06:50 0,8 C 0,4 C 93 % 1023,8 hPa 0,0 mm 0,0 km/h (0 Bft) O 90 -0,2 C 0,0 km/h (0 Bft)
20.12.2015 06:52 0,8 C 0,4 C 93 % 1023,8 hPa 0,0 mm 0,0 km/h (0 Bft) O 90 -0,2 C 0,0 km/h (0 Bft)
20.12.2015 06:55 0,6 C 0,3 C 93 % 1023,9 hPa 0,0 mm 0,0 km/h (0 Bft) O-NO 67 -0,4 C 0,0 km/h (0 Bft)
20.12.2015 07:00 0,2 C -0,1 C 93 % 1023,9 hPa 0,0 mm 0,0 km/h (0 Bft) O-NO 67 -0,8 C 0,0 km/h (0 Bft)
20.12.2015 07:05 -0,1 C -0,3 C 93 % 1023,9 hPa 0,0 mm 0,0 km/h (0 Bft) O-NO 67 -1,1 C 0,0 km/h (0 Bft)
20.12.2015 07:10 -0,1 C -0,3 C 93 % 1023,9 hPa 0,0 mm 0,0 km/h (0 Bft) O-NO 67 -1,1 C 0,0 km/h (0 Bft)
20.12.2015 07:15 0,0 C -0,2 C 93 % 1024,0 hPa 0,0 mm 0,0 km/h (0 Bft) O-NO 67 -1,0 C 0,0 km/h (0 Bft)
20.12.2015 07:20 0,2 C -0,1 C 93 % 1024,0 hPa 0,0 mm 0,0 km/h (0 Bft) O-NO 67 -0,8 C 0,0 km/h (0 Bft)
20.12.2015 07:25 0,2 C -0,1 C 93 % 1024,0 hPa 0,0 mm 0,0 km/h (0 Bft) O 90 -0,8 C 0,0 km/h (0 Bft)
20.12.2015 07:30 0,4 C 0,1 C 93 % 1024,0 hPa 0,0 mm 0,3 km/h (0 Bft) O 90 -0,6 C 0,0 km/h (0 Bft)
20.12.2015 07:35 0,6 C 0,3 C 93 % 1024,0 hPa 0,0 mm 0,3 km/h (0 Bft) NO 45 -0,4 C 0,0 km/h (0 Bft)
20.12.2015 07:40 0,6 C 0,2 C 93 % 1024,0 hPa 0,0 mm 0,0 km/h (0 Bft) NO 45 -0,4 C 0,0 km/h (0 Bft)
20.12.2015 07:45 0,6 C 0,2 C 94 % 1024,0 hPa 0,0 mm 0,0 km/h (0 Bft) O 90 -0,3 C 0,0 km/h (0 Bft)
20.12.2015 07:50 0,2 C 0,0 C 93 % 1024,0 hPa 0,0 mm 0,0 km/h (0 Bft) O-SO 112 -0,8 C 0,0 km/h (0 Bft)
20.12.2015 07:55 0,9 C 0,5 C 94 % 1024,1 hPa 0,0 mm 0,0 km/h (0 Bft) O-SO 112 0,0 C 0,0 km/h (0 Bft)
20.12.2015 08:00 0,4 C 0,2 C 94 % 1024,1 hPa 0,0 mm 0,0 km/h (0 Bft) NW 315 -0,5 C 0,0 km/h (0 Bft)
20.12.2015 08:05 0,5 C 0,3 C 94 % 1024,1 hPa 0,0 mm 0,0 km/h (0 Bft) NW 315 -0,4 C 0,0 km/h (0 Bft)
20.12.2015 08:10 0,2 C 0,0 C 94 % 1024,1 hPa 0,0 mm 0,0 km/h (0 Bft) NW 315 -0,6 C 0,0 km/h (0 Bft)
20.12.2015 08:15 0,2 C 0,0 C 94 % 1024,2 hPa 0,0 mm 0,0 km/h (0 Bft) O 90 -0,6 C 0,0 km/h (0 Bft)
20.12.2015 08:20 0,3 C 0,1 C 94 % 1024,2 hPa 0,0 mm 0,0 km/h (0 Bft) O 90 -0,5 C 0,0 km/h (0 Bft)
20.12.2015 08:25 0,7 C 0,4 C 94 % 1024,2 hPa 0,0 mm 0,0 km/h (0 Bft) O 90 -0,2 C 0,0 km/h (0 Bft)
20.12.2015 08:30 0,4 C 0,2 C 94 % 1024,2 hPa 0,0 mm 0,0 km/h (0 Bft) O 90 -0,5 C 0,0 km/h (0 Bft)
20.12.2015 08:35 0,2 C 0,1 C 94 % 1024,5 hPa 0,0 mm 0,0 km/h (0 Bft) O 90 -0,6 C 0,0 km/h (0 Bft)
20.12.2015 08:40 0,1 C -0,1 C 94 % 1024,5 hPa 0,0 mm 0,0 km/h (0 Bft) O 90 -0,7 C 0,0 km/h (0 Bft)
20.12.2015 08:45 0,2 C 0,0 C 94 % 1024,5 hPa 0,0 mm 0,0 km/h (0 Bft) O 90 -0,6 C 0,0 km/h (0 Bft)
20.12.2015 08:50 0,4 C 0,2 C 94 % 1024,5 hPa 0,0 mm 0,0 km/h (0 Bft) O 90 -0,5 C 0,0 km/h (0 Bft)
20.12.2015 08:55 0,4 C 0,2 C 94 % 1024,6 hPa 0,0 mm 0,0 km/h (0 Bft) O 90 -0,5 C 0,0 km/h (0 Bft)
20.12.2015 09:00 0,4 C 0,2 C 94 % 1024,6 hPa 0,0 mm 0,0 km/h (0 Bft) O 90 -0,5 C 0,0 km/h (0 Bft)
20.12.2015 09:05 0,3 C 0,2 C 94 % 1024,6 hPa 0,0 mm 0,0 km/h (0 Bft) O 90 -0,5 C 0,0 km/h (0 Bft)
20.12.2015 09:10 0,5 C 0,3 C 94 % 1024,6 hPa 0,0 mm 0,0 km/h (0 Bft) O-SO 112 -0,4 C 0,0 km/h (0 Bft)
20.12.2015 09:15 0,6 C 0,4 C 94 % 1024,7 hPa 0,0 mm 0,0 km/h (0 Bft) O 90 -0,3 C 0,0 km/h (0 Bft)
20.12.2015 09:20 0,7 C 0,6 C 94 % 1024,7 hPa 0,0 mm 0,0 km/h (0 Bft) O 90 -0,2 C 0,0 km/h (0 Bft)
20.12.2015 09:25 1,1 C 0,9 C 94 % 1024,7 hPa 0,0 mm 0,0 km/h (0 Bft) O-SO 112 0,2 C 0,0 km/h (0 Bft)
20.12.2015 09:30 1,4 C 1,2 C 94 % 1024,7 hPa 0,0 mm 0,3 km/h (0 Bft) S 180 0,5 C 4,9 km/h (1 Bft)
20.12.2015 09:35 1,8 C 1,8 C 88 % 1025,0 hPa 0,0 mm 0,3 km/h (0 Bft) SO 135 0,0 C 0,0 km/h (0 Bft)
20.12.2015 09:40 1,9 C 2,0 C 88 % 1025,0 hPa 0,0 mm 0,3 km/h (0 Bft) SO 135 0,1 C 5,2 km/h (1 Bft)
20.12.2015 09:45 2,0 C 2,1 C 88 % 1025,0 hPa 0,0 mm 0,5 km/h (0 Bft) O-NO 67 0,2 C 2,8 km/h (1 Bft)
20.12.2015 09:50 2,7 C 2,7 C 88 % 1025,0 hPa 0,0 mm 0,5 km/h (0 Bft) O-NO 67 0,9 C 0,0 km/h (0 Bft)
20.12.2015 09:55 2,9 C 2,8 C 88 % 1025,1 hPa 0,0 mm 0,0 km/h (0 Bft) O-SO 112 1,1 C 0,0 km/h (0 Bft)
20.12.2015 10:00 3,0 C 3,0 C 87 % 1025,1 hPa 0,0 mm 0,0 km/h (0 Bft) O-SO 112 1,1 C 0,0 km/h (0 Bft)
20.12.2015 10:05 3,2 C 3,1 C 93 % 1025,1 hPa 0,0 mm 0,0 km/h (0 Bft) O-SO 112 2,2 C 0,0 km/h (0 Bft)
20.12.2015 10:10 3,5 C 3,3 C 93 % 1025,1 hPa 0,0 mm 0,0 km/h (0 Bft) O-NO 67 2,5 C 0,0 km/h (0 Bft)
20.12.2015 10:15 3,5 C 3,4 C 93 % 1025,3 hPa 0,0 mm 0,0 km/h (0 Bft) O-NO 67 2,5 C 0,0 km/h (0 Bft)
20.12.2015 10:20 3,4 C 3,4 C 93 % 1025,3 hPa 0,0 mm 0,0 km/h (0 Bft) O-NO 67 2,4 C 0,0 km/h (0 Bft)
20.12.2015 10:25 3,7 C 3,6 C 93 % 1025,3 hPa 0,0 mm 0,0 km/h (0 Bft) NO 45 2,7 C 0,0 km/h (0 Bft)
20.12.2015 10:30 4,8 C 4,5 C 93 % 1025,3 hPa 0,0 mm 0,3 km/h (0 Bft) O-SO 112 3,8 C 0,0 km/h (0 Bft)
20.12.2015 10:35 5,0 C 4,7 C 93 % 1025,3 hPa 0,0 mm 0,3 km/h (0 Bft) O-SO 112 4,0 C 0,0 km/h (0 Bft)
20.12.2015 10:40 5,0 C 4,8 C 93 % 1025,3 hPa 0,0 mm 0,0 km/h (0 Bft) SO 135 4,0 C 0,0 km/h (0 Bft)
20.12.2015 10:45 4,9 C 4,8 C 93 % 1025,3 hPa 0,0 mm 0,0 km/h (0 Bft) SO 135 3,9 C 0,0 km/h (0 Bft)
20.12.2015 10:50 5,4 C 5,2 C 92 % 1025,3 hPa 0,0 mm 0,0 km/h (0 Bft) SO 135 4,2 C 0,0 km/h (0 Bft)
20.12.2015 10:55 6,3 C 5,9 C 90 % 1025,4 hPa 0,0 mm 0,0 km/h (0 Bft) SO 135 4,8 C 0,0 km/h (0 Bft)
20.12.2015 11:00 6,5 C 6,2 C 89 % 1025,4 hPa 0,0 mm 0,0 km/h (0 Bft) O-SO 112 4,8 C 0,0 km/h (0 Bft)
20.12.2015 11:05 6,7 C 6,5 C 82 % 1025,4 hPa 0,0 mm 0,0 km/h (0 Bft) O-SO 112 3,8 C 0,0 km/h (0 Bft)
20.12.2015 11:10 7,3 C 6,9 C 84 % 1025,4 hPa 0,0 mm 0,0 km/h (0 Bft) SO 135 4,8 C 0,0 km/h (0 Bft)
20.12.2015 11:15 7,7 C 7,2 C 80 % 1025,5 hPa 0,0 mm 0,0 km/h (0 Bft) SO 135 4,5 C 0,0 km/h (0 Bft)
20.12.2015 11:20 7,6 C 7,2 C 78 % 1025,5 hPa 0,0 mm 0,0 km/h (0 Bft) SO 135 4,0 C 0,0 km/h (0 Bft)
20.12.2015 11:25 7,9 C 7,5 C 78 % 1025,5 hPa 0,0 mm 0,0 km/h (0 Bft) SO 135 4,3 C 0,0 km/h (0 Bft)
20.12.2015 11:30 8,5 C 7,9 C 76 % 1025,5 hPa 0,0 mm 0,0 km/h (0 Bft) SO 135 4,5 C 0,0 km/h (0 Bft)
20.12.2015 11:35 8,6 C 8,1 C 75 % 1025,3 hPa 0,0 mm 0,0 km/h (0 Bft) SO 135 4,4 C 0,0 km/h (0 Bft)
20.12.2015 11:40 8,7 C 8,3 C 74 % 1025,3 hPa 0,0 mm 0,0 km/h (0 Bft) SO 135 4,3 C 0,0 km/h (0 Bft)
20.12.2015 11:45 8,8 C 8,4 C 73 % 1025,3 hPa 0,0 mm 0,0 km/h (0 Bft) SO 135 4,2 C 0,0 km/h (0 Bft)
20.12.2015 11:50 8,9 C 8,5 C 70 % 1025,3 hPa 0,0 mm 0,0 km/h (0 Bft) S-SO 157 3,7 C 0,0 km/h (0 Bft)
20.12.2015 11:55 9,2 C 8,8 C 70 % 1025,0 hPa 0,0 mm 0,0 km/h (0 Bft) S-SO 157 4,0 C 0,0 km/h (0 Bft)
20.12.2015 12:00 9,3 C 9,0 C 70 % 1025,0 hPa 0,0 mm 0,0 km/h (0 Bft) S-SO 157 4,1 C 0,0 km/h (0 Bft)
20.12.2015 12:05 9,5 C 9,2 C 69 % 1025,0 hPa 0,0 mm 0,0 km/h (0 Bft) S-SO 157 4,1 C 0,0 km/h (0 Bft)
20.12.2015 12:10 9,3 C 9,2 C 69 % 1025,0 hPa 0,0 mm 0,0 km/h (0 Bft) S-SO 157 3,9 C 0,0 km/h (0 Bft)
20.12.2015 12:15 9,3 C 9,2 C 69 % 1024,9 hPa 0,0 mm 0,0 km/h (0 Bft) S 180 3,9 C 0,0 km/h (0 Bft)
20.12.2015 12:20 9,6 C 9,5 C 69 % 1024,9 hPa 0,0 mm 0,0 km/h (0 Bft) SW 225 4,2 C 0,0 km/h (0 Bft)
20.12.2015 12:25 9,8 C 9,7 C 69 % 1024,9 hPa 0,0 mm 0,0 km/h (0 Bft) S-SW 202 4,4 C 0,0 km/h (0 Bft)
20.12.2015 12:30 10,0 C 9,9 C 67 % 1024,9 hPa 0,0 mm 0,0 km/h (0 Bft) S 180 4,2 C 0,0 km/h (0 Bft)
20.12.2015 12:35 9,8 C 10,1 C 68 % 1024,8 hPa 0,0 mm 0,0 km/h (0 Bft) NW 315 4,2 C 0,0 km/h (0 Bft)
20.12.2015 12:40 10,0 C 10,4 C 68 % 1024,8 hPa 0,0 mm 0,0 km/h (0 Bft) W-SW 247 4,4 C 0,0 km/h (0 Bft)
20.12.2015 12:45 9,9 C 10,6 C 68 % 1024,8 hPa 0,0 mm 0,3 km/h (0 Bft) W-NW 292 4,3 C 0,0 km/h (0 Bft)
20.12.2015 12:50 10,0 C 10,8 C 68 % 1024,8 hPa 0,0 mm 0,3 km/h (0 Bft) W-SW 247 4,4 C 0,0 km/h (0 Bft)
20.12.2015 12:53 9,8 C 11,0 C 68 % 1024,7 hPa 0,0 mm 0,0 km/h (0 Bft) NW 315 4,2 C 0,0 km/h (0 Bft)
20.12.2015 12:55 9,8 C 11,0 C 68 % 1024,7 hPa 0,0 mm 0,0 km/h (0 Bft) NW 315 4,2 C 0,0 km/h (0 Bft)
20.12.2015 13:00 10,8 C 11,2 C 67 % 1024,7 hPa 0,0 mm 0,0 km/h (0 Bft) SW 225 4,9 C 0,0 km/h (0 Bft)
20.12.2015 13:05 10,9 C 11,3 C 66 % 1024,7 hPa 0,0 mm 0,0 km/h (0 Bft) SW 225 4,8 C 0,0 km/h (0 Bft)
20.12.2015 13:10 11,3 C 11,4 C 61 % 1024,7 hPa 0,0 mm 0,0 km/h (0 Bft) SO 135 4,1 C 0,0 km/h (0 Bft)
20.12.2015 13:15 11,5 C 11,5 C 61 % 1024,5 hPa 0,0 mm 0,0 km/h (0 Bft) SW 225 4,2 C 0,0 km/h (0 Bft)
20.12.2015 13:20 11,4 C 11,7 C 61 % 1024,5 hPa 0,0 mm 0,0 km/h (0 Bft) SW 225 4,2 C 0,0 km/h (0 Bft)
20.12.2015 13:25 11,7 C 11,8 C 59 % 1024,5 hPa 0,0 mm 0,0 km/h (0 Bft) O 90 4,0 C 0,0 km/h (0 Bft)
20.12.2015 13:30 11,9 C 11,9 C 59 % 1024,5 hPa 0,0 mm 0,0 km/h (0 Bft) SO 135 4,1 C 0,0 km/h (0 Bft)
20.12.2015 13:35 11,8 C 11,8 C 58 % 1024,3 hPa 0,0 mm 0,0 km/h (0 Bft) S-SO 157 3,8 C 0,0 km/h (0 Bft)
20.12.2015 13:40 12,1 C 12,1 C 57 % 1024,3 hPa 0,0 mm 0,0 km/h (0 Bft) S 180 3,8 C 0,0 km/h (0 Bft)
20.12.2015 13:45 12,0 C 12,4 C 58 % 1024,3 hPa 0,0 mm 0,0 km/h (0 Bft) S 180 4,0 C 0,0 km/h (0 Bft)
20.12.2015 13:50 13,2 C 14,3 C 56 % 1024,3 hPa 0,0 mm 0,0 km/h (0 Bft) S 180 4,6 C 0,0 km/h (0 Bft)
20.12.2015 13:55 13,8 C 15,8 C 54 % 1024,2 hPa 0,0 mm 0,3 km/h (0 Bft) S 180 4,7 C 0,0 km/h (0 Bft)
20.12.2015 14:00 14,1 C 17,7 C 55 % 1024,2 hPa 0,0 mm 0,3 km/h (0 Bft) S 180 5,2 C 0,0 km/h (0 Bft)
20.12.2015 14:05 13,8 C 18,8 C 55 % 1024,2 hPa 0,0 mm 0,0 km/h (0 Bft) S 180 4,9 C 0,0 km/h (0 Bft)
20.12.2015 14:10 13,5 C 18,6 C 55 % 1024,2 hPa 0,0 mm 0,0 km/h (0 Bft) S 180 4,6 C 0,0 km/h (0 Bft)
20.12.2015 14:15 13,0 C 18,6 C 55 % 1024,5 hPa 0,0 mm 0,0 km/h (0 Bft) S 180 4,2 C 0,0 km/h (0 Bft)
20.12.2015 14:20 13,3 C 17,1 C 55 % 1024,5 hPa 0,0 mm 0,0 km/h (0 Bft) S 180 4,5 C 0,0 km/h (0 Bft)
20.12.2015 14:25 13,0 C 16,2 C 56 % 1024,5 hPa 0,0 mm 0,0 km/h (0 Bft) S-SW 202 4,4 C 0,0 km/h (0 Bft)
20.12.2015 14:30 12,7 C 15,6 C 57 % 1024,5 hPa 0,0 mm 0,0 km/h (0 Bft) S 180 4,4 C 0,0 km/h (0 Bft)
20.12.2015 14:35 13,0 C 15,0 C 57 % 1024,4 hPa 0,0 mm 0,0 km/h (0 Bft) S 180 4,7 C 0,0 km/h (0 Bft)
20.12.2015 14:40 12,7 C 14,1 C 57 % 1024,4 hPa 0,0 mm 0,0 km/h (0 Bft) S 180 4,4 C 0,0 km/h (0 Bft)
20.12.2015 14:45 13,3 C 13,9 C 57 % 1024,4 hPa 0,0 mm 0,0 km/h (0 Bft) S 180 5,0 C 0,0 km/h (0 Bft)
20.12.2015 14:50 13,4 C 14,6 C 56 % 1024,4 hPa 0,0 mm 0,0 km/h (0 Bft) S-SW 202 4,8 C 0,0 km/h (0 Bft)
20.12.2015 14:55 13,1 C 14,8 C 57 % 1024,3 hPa 0,0 mm 0,0 km/h (0 Bft) S 180 4,8 C 0,0 km/h (0 Bft)
20.12.2015 15:00 13,2 C 16,0 C 56 % 1024,3 hPa 0,0 mm 0,0 km/h (0 Bft) S 180 4,6 C 0,0 km/h (0 Bft)
20.12.2015 15:05 13,3 C 15,8 C 56 % 1024,3 hPa 0,0 mm 0,0 km/h (0 Bft) S 180 4,7 C 0,0 km/h (0 Bft)
20.12.2015 15:10 12,9 C 14,8 C 57 % 1024,3 hPa 0,0 mm 0,0 km/h (0 Bft) S 180 4,6 C 0,0 km/h (0 Bft)
20.12.2015 15:15 12,0 C 14,2 C 59 % 1024,4 hPa 0,0 mm 0,0 km/h (0 Bft) S 180 4,2 C 0,0 km/h (0 Bft)
20.12.2015 15:20 12,0 C 13,3 C 59 % 1024,4 hPa 0,0 mm 0,5 km/h (0 Bft) S 180 4,2 C 3,4 km/h (1 Bft)
20.12.2015 15:25 12,4 C 13,1 C 58 % 1024,4 hPa 0,0 mm 0,8 km/h (0 Bft) S 180 4,4 C 3,4 km/h (1 Bft)
20.12.2015 15:30 11,3 C 12,5 C 58 % 1024,4 hPa 0,0 mm 0,5 km/h (0 Bft) SW 225 3,3 C 0,0 km/h (0 Bft)
20.12.2015 15:35 10,3 C 11,8 C 59 % 1024,5 hPa 0,0 mm 0,0 km/h (0 Bft) SW 225 2,6 C 0,0 km/h (0 Bft)
20.12.2015 15:40 10,9 C 11,1 C 60 % 1024,5 hPa 0,0 mm 0,0 km/h (0 Bft) SW 225 3,4 C 0,0 km/h (0 Bft)
20.12.2015 15:45 11,3 C 11,3 C 60 % 1024,5 hPa 0,0 mm 0,0 km/h (0 Bft) S 180 3,8 C 2,6 km/h (1 Bft)
20.12.2015 15:50 11,8 C 11,6 C 59 % 1024,5 hPa 0,0 mm 0,0 km/h (0 Bft) S 180 4,1 C 0,0 km/h (0 Bft)
20.12.2015 15:55 11,3 C 11,2 C 59 % 1024,7 hPa 0,0 mm 0,0 km/h (0 Bft) S 180 3,6 C 0,0 km/h (0 Bft)
20.12.2015 16:00 10,1 C 10,3 C 60 % 1024,7 hPa 0,0 mm 0,0 km/h (0 Bft) S 180 2,7 C 0,0 km/h (0 Bft)
20.12.2015 16:05 10,1 C 10,4 C 62 % 1024,7 hPa 0,0 mm 1,6 km/h (1 Bft) S 180 3,2 C 6,2 km/h (2 Bft)
20.12.2015 16:10 10,2 C 10,4 C 62 % 1024,7 hPa 0,0 mm 3,9 km/h (1 Bft) S 180 3,3 C 6,7 km/h (2 Bft)
20.12.2015 16:15 10,2 C 10,3 C 62 % 1024,5 hPa 0,0 mm 3,1 km/h (1 Bft) S 180 3,3 C 0,0 km/h (0 Bft)
20.12.2015 16:20 8,8 C 9,9 C 63 % 1024,5 hPa 0,0 mm 1,0 km/h (0 Bft) SO 135 2,2 C 2,6 km/h (1 Bft)
20.12.2015 16:25 8,8 C 9,3 C 65 % 1024,5 hPa 0,0 mm 0,3 km/h (0 Bft) S 180 2,6 C 0,0 km/h (0 Bft)
20.12.2015 16:30 9,3 C 9,3 C 66 % 1024,5 hPa 0,0 mm 0,0 km/h (0 Bft) S-SO 157 3,3 C 0,0 km/h (0 Bft)
20.12.2015 16:35 9,3 C 9,1 C 66 % 1024,6 hPa 0,0 mm 0,0 km/h (0 Bft) S-SO 157 3,3 C 0,0 km/h (0 Bft)
20.12.2015 16:40 8,3 C 8,3 C 67 % 1024,6 hPa 0,0 mm 0,0 km/h (0 Bft) S-SO 157 2,5 C 0,0 km/h (0 Bft)
20.12.2015 16:45 8,2 C 8,0 C 68 % 1024,6 hPa 0,0 mm 0,0 km/h (0 Bft) S-SO 157 2,7 C 0,0 km/h (0 Bft)
20.12.2015 16:50 6,8 C 7,0 C 68 % 1024,6 hPa 0,0 mm 0,3 km/h (0 Bft) SW 225 1,3 C 9,3 km/h (2 Bft)
20.12.2015 16:55 7,8 C 7,6 C 69 % 1024,9 hPa 0,0 mm 2,1 km/h (1 Bft) SW 225 2,5 C 7,0 km/h (2 Bft)
20.12.2015 17:00 8,4 C 8,3 C 69 % 1024,9 hPa 0,0 mm 4,9 km/h (1 Bft) S 180 3,0 C 5,4 km/h (1 Bft)
20.12.2015 17:05 8,2 C 8,3 C 69 % 1024,9 hPa 0,0 mm 5,2 km/h (1 Bft) S 180 2,9 C 5,4 km/h (1 Bft)
20.12.2015 17:10 7,4 C 8,2 C 69 % 1024,9 hPa 0,0 mm 3,9 km/h (1 Bft) S-SO 157 2,1 C 3,4 km/h (1 Bft)
20.12.2015 17:15 7,9 C 8,1 C 70 % 1025,1 hPa 0,0 mm 2,3 km/h (1 Bft) SO 135 2,8 C 4,4 km/h (1 Bft)
20.12.2015 17:20 7,5 C 7,8 C 70 % 1025,1 hPa 0,0 mm 1,3 km/h (1 Bft) O-NO 67 2,4 C 0,0 km/h (0 Bft)
20.12.2015 17:25 6,7 C 7,3 C 70 % 1025,1 hPa 0,0 mm 1,3 km/h (1 Bft) SO 135 1,6 C 4,9 km/h (1 Bft)
20.12.2015 17:30 6,8 C 7,1 C 72 % 1025,1 hPa 0,0 mm 1,0 km/h (0 Bft) S-SO 157 2,1 C 0,0 km/h (0 Bft)
20.12.2015 17:35 6,0 C 6,7 C 71 % 1025,2 hPa 0,0 mm 0,8 km/h (0 Bft) SO 135 1,1 C 3,1 km/h (1 Bft)
20.12.2015 17:40 7,0 C 7,1 C 72 % 1025,2 hPa 0,0 mm 1,3 km/h (1 Bft) SO 135 2,3 C 2,8 km/h (1 Bft)
20.12.2015 17:45 6,9 C 7,0 C 72 % 1025,2 hPa 0,0 mm 1,6 km/h (1 Bft) S 180 2,2 C 4,9 km/h (1 Bft)
20.12.2015 17:50 6,9 C 6,9 C 72 % 1025,2 hPa 0,0 mm 1,3 km/h (1 Bft) O-SO 112 2,2 C 2,8 km/h (1 Bft)
20.12.2015 17:55 6,1 C 6,4 C 71 % 1025,2 hPa 0,0 mm 1,0 km/h (0 Bft) S-SO 157 1,2 C 0,0 km/h (0 Bft)
20.12.2015 18:00 5,7 C 6,0 C 73 % 1025,2 hPa 0,0 mm 0,3 km/h (0 Bft) O-NO 67 1,2 C 0,0 km/h (0 Bft)
20.12.2015 18:05 5,8 C 5,7 C 75 % 1025,2 hPa 0,0 mm 0,0 km/h (0 Bft) S 180 1,7 C 0,0 km/h (0 Bft)
20.12.2015 18:10 5,6 C 5,5 C 75 % 1025,2 hPa 0,0 mm 0,0 km/h (0 Bft) O-NO 67 1,5 C 0,0 km/h (0 Bft)
20.12.2015 18:15 5,2 C 5,1 C 75 % 1025,1 hPa 0,0 mm 0,0 km/h (0 Bft) O 90 1,1 C 0,0 km/h (0 Bft)
20.12.2015 18:20 5,1 C 5,0 C 76 % 1025,1 hPa 0,0 mm 0,5 km/h (0 Bft) S-SO 157 1,2 C 4,4 km/h (1 Bft)
20.12.2015 18:25 4,9 C 4,8 C 76 % 1025,1 hPa 0,0 mm 0,5 km/h (0 Bft) SO 135 1,0 C 0,0 km/h (0 Bft)
20.12.2015 18:30 4,4 C 4,5 C 76 % 1025,1 hPa 0,0 mm 0,3 km/h (0 Bft) O-NO 67 0,5 C 0,0 km/h (0 Bft)
20.12.2015 18:35 4,4 C 4,4 C 77 % 1025,3 hPa 0,0 mm 0,3 km/h (0 Bft) NO 45 0,7 C 0,0 km/h (0 Bft)
20.12.2015 18:40 4,3 C 4,2 C 77 % 1025,3 hPa 0,0 mm 0,0 km/h (0 Bft) N-NO 22 0,6 C 0,0 km/h (0 Bft)
20.12.2015 18:45 4,0 C 3,9 C 77 % 1025,3 hPa 0,0 mm 0,0 km/h (0 Bft) N-NO 22 0,3 C 0,0 km/h (0 Bft)
20.12.2015 18:50 3,8 C 3,6 C 78 % 1025,3 hPa 0,0 mm 0,0 km/h (0 Bft) N-NO 22 0,3 C 0,0 km/h (0 Bft)
20.12.2015 18:54 3,8 C 3,5 C 78 % 1025,3 hPa 0,0 mm 0,0 km/h (0 Bft) O-NO 67 0,3 C 0,0 km/h (0 Bft)
20.12.2015 19:00 3,9 C 3,6 C 79 % 1025,3 hPa 0,0 mm 0,0 km/h (0 Bft) N-NO 22 0,6 C 0,0 km/h (0 Bft)
20.12.2015 19:05 3,7 C 3,4 C 79 % 1025,3 hPa 0,0 mm 0,0 km/h (0 Bft) N-NO 22 0,4 C 0,0 km/h (0 Bft)
20.12.2015 19:10 3,7 C 3,3 C 80 % 1025,3 hPa 0,0 mm 0,0 km/h (0 Bft) O-NO 67 0,6 C 0,0 km/h (0 Bft)
20.12.2015 19:15 3,4 C 3,1 C 80 % 1025,2 hPa 0,0 mm 0,0 km/h (0 Bft) O-NO 67 0,3 C 0,0 km/h (0 Bft)
20.12.2015 19:20 3,1 C 2,9 C 80 % 1025,2 hPa 0,0 mm 0,5 km/h (0 Bft) N 360 -0,0 C 3,9 km/h (1 Bft)
20.12.2015 19:25 3,3 C 3,0 C 82 % 1025,2 hPa 0,0 mm 0,5 km/h (0 Bft) S-SO 157 0,5 C 0,0 km/h (0 Bft)
20.12.2015 19:30 3,9 C 3,4 C 83 % 1025,2 hPa 0,0 mm 0,5 km/h (0 Bft) O-SO 112 1,3 C 0,0 km/h (0 Bft)
20.12.2015 19:35 4,1 C 3,5 C 83 % 1025,5 hPa 0,0 mm 0,0 km/h (0 Bft) S-SO 157 1,5 C 0,0 km/h (0 Bft)
20.12.2015 19:40 4,1 C 3,6 C 83 % 1025,5 hPa 0,0 mm 0,0 km/h (0 Bft) S 180 1,5 C 0,0 km/h (0 Bft)
20.12.2015 19:45 3,9 C 3,5 C 82 % 1025,5 hPa 0,0 mm 0,8 km/h (0 Bft) S 180 1,1 C 3,6 km/h (1 Bft)
20.12.2015 19:50 4,2 C 4,0 C 78 % 1025,5 hPa 0,0 mm 2,6 km/h (1 Bft) S-SO 157 0,7 C 0,0 km/h (0 Bft)
20.12.2015 19:55 4,3 C 4,4 C 78 % 1025,5 hPa 0,0 mm 3,4 km/h (1 Bft) S 180 0,8 C 4,7 km/h (1 Bft)
20.12.2015 20:00 5,0 C 5,1 C 78 % 1025,5 hPa 0,0 mm 3,9 km/h (1 Bft) O-SO 112 1,5 C 3,9 km/h (1 Bft)
20.12.2015 20:05 3,4 C 4,5 C 78 % 1025,5 hPa 0,0 mm 3,1 km/h (1 Bft) S 180 -0,1 C 7,3 km/h (2 Bft)
20.12.2015 20:10 5,3 C 5,4 C 79 % 1025,5 hPa 0,0 mm 3,9 km/h (1 Bft) N-NW 337 2,0 C 11,1 km/h (2 Bft)
20.12.2015 20:15 4,6 C 5,1 C 80 % 1025,7 hPa 0,0 mm 3,9 km/h (1 Bft) SO 135 1,5 C 0,0 km/h (0 Bft)
20.12.2015 20:20 4,0 C 4,6 C 80 % 1025,7 hPa 0,0 mm 0,8 km/h (0 Bft) S 180 0,9 C 0,0 km/h (0 Bft)
20.12.2015 20:25 3,5 C 4,5 C 80 % 1025,7 hPa 0,0 mm 0,3 km/h (0 Bft) O-SO 112 0,4 C 0,0 km/h (0 Bft)
20.12.2015 20:30 3,3 C 3,8 C 80 % 1025,7 hPa 0,0 mm 1,3 km/h (1 Bft) W-SW 247 0,2 C 8,0 km/h (2 Bft)
20.12.2015 20:35 4,1 C 4,9 C 79 % 1025,8 hPa 0,0 mm 2,1 km/h (1 Bft) S 180 0,8 C 5,4 km/h (1 Bft)
20.12.2015 20:40 5,4 C 5,7 C 79 % 1025,8 hPa 0,0 mm 3,6 km/h (1 Bft) SW 225 2,1 C 3,4 km/h (1 Bft)
20.12.2015 20:45 5,1 C 5,6 C 78 % 1025,8 hPa 0,0 mm 2,6 km/h (1 Bft) W-SW 247 1,6 C 3,1 km/h (1 Bft)
20.12.2015 20:50 3,6 C 5,7 C 79 % 1025,8 hPa 0,0 mm 1,3 km/h (1 Bft) SO 135 0,3 C 0,0 km/h (0 Bft)
20.12.2015 20:55 3,2 C 5,1 C 79 % 1025,7 hPa 0,0 mm 1,0 km/h (0 Bft) SO 135 -0,1 C 0,0 km/h (0 Bft)
20.12.2015 21:00 3,0 C 4,2 C 79 % 1025,7 hPa 0,0 mm 0,0 km/h (0 Bft) O-SO 112 -0,3 C 0,0 km/h (0 Bft)
20.12.2015 21:05 2,7 C 3,5 C 80 % 1025,7 hPa 0,0 mm 0,0 km/h (0 Bft) O-SO 112 -0,4 C 0,0 km/h (0 Bft)
20.12.2015 21:10 2,7 C 2,7 C 81 % 1025,7 hPa 0,0 mm 0,0 km/h (0 Bft) O-SO 112 -0,2 C 0,0 km/h (0 Bft)
20.12.2015 21:15 2,7 C 2,6 C 81 % 1025,8 hPa 0,0 mm 0,0 km/h (0 Bft) O-SO 112 -0,2 C 0,0 km/h (0 Bft)
20.12.2015 21:20 2,6 C 2,4 C 82 % 1025,8 hPa 0,0 mm 0,0 km/h (0 Bft) O-SO 112 -0,2 C 0,0 km/h (0 Bft)
20.12.2015 21:25 2,3 C 2,1 C 82 % 1025,8 hPa 0,0 mm 0,0 km/h (0 Bft) O-SO 112 -0,4 C 0,0 km/h (0 Bft)
20.12.2015 21:30 2,8 C 2,4 C 84 % 1025,8 hPa 0,0 mm 0,3 km/h (0 Bft) S-SO 157 0,4 C 2,8 km/h (1 Bft)
20.12.2015 21:35 3,4 C 3,3 C 80 % 1025,7 hPa 0,0 mm 0,3 km/h (0 Bft) SO 135 0,3 C 2,8 km/h (1 Bft)
20.12.2015 21:40 3,4 C 3,2 C 84 % 1025,7 hPa 0,0 mm 0,5 km/h (0 Bft) SO 135 1,0 C 0,0 km/h (0 Bft)
20.12.2015 21:45 2,9 C 2,9 C 84 % 1025,7 hPa 0,0 mm 0,3 km/h (0 Bft) O-SO 112 0,5 C 0,0 km/h (0 Bft)
20.12.2015 21:50 2,8 C 2,7 C 84 % 1025,7 hPa 0,0 mm 0,0 km/h (0 Bft) O-SO 112 0,4 C 0,0 km/h (0 Bft)
20.12.2015 21:55 2,4 C 2,3 C 84 % 1025,7 hPa 0,0 mm 0,0 km/h (0 Bft) O-SO 112 -0,0 C 0,0 km/h (0 Bft)
20.12.2015 22:00 2,2 C 2,1 C 84 % 1025,7 hPa 0,0 mm 0,0 km/h (0 Bft) O-SO 112 -0,2 C 0,0 km/h (0 Bft)
20.12.2015 22:05 2,1 C 1,9 C 84 % 1025,7 hPa 0,0 mm 0,0 km/h (0 Bft) O-SO 112 -0,3 C 0,0 km/h (0 Bft)
20.12.2015 22:10 2,0 C 1,8 C 84 % 1025,7 hPa 0,0 mm 0,3 km/h (0 Bft) O-SO 112 -0,4 C 0,0 km/h (0 Bft)
20.12.2015 22:15 2,3 C 2,0 C 84 % 1025,8 hPa 0,0 mm 0,3 km/h (0 Bft) SO 135 -0,1 C 0,0 km/h (0 Bft)
20.12.2015 22:20 2,9 C 2,4 C 85 % 1025,8 hPa 0,0 mm 0,0 km/h (0 Bft) SO 135 0,6 C 0,0 km/h (0 Bft)
20.12.2015 22:25 2,3 C 2,0 C 85 % 1025,8 hPa 0,0 mm 0,0 km/h (0 Bft) NO 45 0,0 C 0,0 km/h (0 Bft)
20.12.2015 22:30 2,1 C 1,8 C 85 % 1025,8 hPa 0,0 mm 0,0 km/h (0 Bft) O-NO 67 -0,2 C 0,0 km/h (0 Bft)
20.12.2015 22:35 2,1 C 1,8 C 85 % 1025,7 hPa 0,0 mm 0,0 km/h (0 Bft) O-NO 67 -0,2 C 0,0 km/h (0 Bft)
20.12.2015 22:41 2,4 C 2,1 C 85 % 1025,7 hPa 0,0 mm 0,0 km/h (0 Bft) SO 135 0,1 C 0,0 km/h (0 Bft)
20.12.2015 22:45 2,2 C 2,0 C 85 % 1025,7 hPa 0,0 mm 0,0 km/h (0 Bft) SO 135 -0,1 C 0,0 km/h (0 Bft)
20.12.2015 22:50 2,3 C 2,2 C 86 % 1025,7 hPa 0,0 mm 0,0 km/h (0 Bft) O-SO 112 0,2 C 0,0 km/h (0 Bft)
20.12.2015 22:56 3,4 C 3,2 C 81 % 1025,8 hPa 0,0 mm 0,0 km/h (0 Bft) O-SO 112 0,5 C 0,0 km/h (0 Bft)
20.12.2015 23:00 2,8 C 2,7 C 86 % 1025,8 hPa 0,0 mm 0,0 km/h (0 Bft) O-SO 112 0,7 C 0,0 km/h (0 Bft)
20.12.2015 23:05 2,2 C 2,3 C 85 % 1025,8 hPa 0,0 mm 0,0 km/h (0 Bft) O-SO 112 -0,1 C 0,0 km/h (0 Bft)
20.12.2015 23:10 2,0 C 1,9 C 85 % 1025,8 hPa 0,0 mm 0,0 km/h (0 Bft) O-SO 112 -0,3 C 0,0 km/h (0 Bft)
20.12.2015 23:16 2,2 C 2,0 C 85 % 1025,7 hPa 0,0 mm 0,3 km/h (0 Bft) SO 135 -0,1 C 0,0 km/h (0 Bft)
20.12.2015 23:20 1,9 C 1,8 C 85 % 1025,7 hPa 0,0 mm 1,0 km/h (0 Bft) N-NW 337 -0,3 C 4,1 km/h (1 Bft)
20.12.2015 23:25 1,8 C 1,7 C 85 % 1025,7 hPa 0,0 mm 0,8 km/h (0 Bft) O-SO 112 -0,4 C 0,0 km/h (0 Bft)
20.12.2015 23:30 1,9 C 1,7 C 86 % 1025,7 hPa 0,0 mm 0,5 km/h (0 Bft) O-NO 67 -0,2 C 0,0 km/h (0 Bft)
20.12.2015 23:35 1,8 C 1,6 C 86 % 1025,7 hPa 0,0 mm 0,0 km/h (0 Bft) O-NO 67 -0,3 C 0,0 km/h (0 Bft)
20.12.2015 23:40 1,8 C 1,6 C 86 % 1025,7 hPa 0,0 mm 0,0 km/h (0 Bft) O-NO 67 -0,3 C 0,0 km/h (0 Bft)
20.12.2015 23:45 2,1 C 1,8 C 86 % 1025,7 hPa 0,0 mm 0,0 km/h (0 Bft) O-NO 67 0,0 C 0,0 km/h (0 Bft)
20.12.2015 23:50 2,3 C 1,9 C 86 % 1025,7 hPa 0,0 mm 0,0 km/h (0 Bft) O-NO 67 0,2 C 0,0 km/h (0 Bft)
20.12.2015 23:55 1,9 C 1,6 C 86 % 1025,8 hPa 0,0 mm 0,0 km/h (0 Bft) NO 45 -0,2 C 0,0 km/h (0 Bft)
_ Min-Zeit 07:10 07:10 13:55 06:30 - 23:55 - - 02:25 23:55
Minimum _ -0,1 C -0,3 C 54 % 1023,6 hPa - 0,0 km/h (0 Bft) - - -1,3 C 0,0 km/h (0 Bft)
_ Max-Zeit 14:00 14:05 09:30 23:55 23:55 17:05 - - 14:00 20:10
Maximum _ 14,1 C 18,8 C 94 % 1025,8 hPa 0,0 mm 5,2 km/h
S (1 Bft)
- - 5,2 C 11,1 km/h
N-NW (2 Bft)
Durchschnitt _ 4,2 C 4,3 C 82 % 1024,7 hPa #0,0 mm 0,3 km/h (0 Bft) S - 1,1 C 0,6 km/h (0 Bft)